| time (UTC) | temp F | wind direction | speed MPH | gust MPH | rain 1hr in | rain 24hr in | rain mn in | humidity % | barometer mb |
| 20260509033126 | 64 | 5 | 3.0 | 4.0 | 0.00 | 0.00 | 0.00 | 23 | 1019.4 |
| 20260509032639 | 64 | 313 | 0.0 | 0.0 | 0.00 | 0.00 | 0.00 | 22 | 1019.4 |
| 20260509032134 | 64 | 313 | 0.0 | 0.0 | 0.00 | 0.00 | 0.00 | 23 | 1019.3 |
| 20260509031647 | 65 | 313 | 0.0 | 0.0 | 0.00 | 0.00 | 0.00 | 22 | 1019.3 |
| 20260509031139 | 65 | 313 | 0.0 | 1.0 | 0.00 | 0.00 | 0.00 | 22 | 1019.2 |
| 20260509030633 | 66 | 293 | 0.0 | 4.0 | 0.00 | 0.00 | 0.00 | 21 | 1019.2 |
| 20260509030131 | 66 | 328 | 2.0 | 4.0 | 0.00 | 0.00 | 0.00 | 21 | 1019.2 |
| 20260509025624 | 66 | 335 | 1.0 | 4.0 | 0.00 | 0.00 | 0.00 | 21 | 1019.1 |
| 20260509025137 | 66 | 343 | 1.0 | 3.0 | 0.00 | 0.00 | 0.00 | 21 | 1019.0 |
| 20260509024632 | 66 | 326 | 1.0 | 6.0 | 0.00 | 0.00 | 0.00 | 20 | 1018.9 |
| 20260509024125 | 67 | 263 | 2.0 | 6.0 | 0.00 | 0.00 | 0.00 | 20 | 1018.9 |
| 20260509023637 | 67 | 315 | 2.0 | 8.0 | 0.00 | 0.00 | 0.00 | 20 | 1018.9 |
| 20260509023151 | 67 | 51 | 2.0 | 8.0 | 0.00 | 0.00 | 0.00 | 20 | 1018.8 |
| 20260509022625 | 67 | 350 | 3.0 | 8.0 | 0.00 | 0.00 | 0.00 | 19 | 1018.7 |
| 20260509022123 | 67 | 78 | 2.0 | 8.0 | 0.00 | 0.00 | 0.00 | 20 | 1018.6 |
| 20260509021637 | 67 | 29 | 3.0 | 7.0 | 0.00 | 0.00 | 0.00 | 19 | 1018.5 |
| 20260509021132 | 67 | 14 | 2.0 | 4.0 | 0.00 | 0.00 | 0.00 | 19 | 1018.5 |
| 20260509020626 | 68 | 327 | 1.0 | 3.0 | 0.00 | 0.00 | 0.00 | 20 | 1018.4 |
| 20260509020139 | 68 | 15 | 0.0 | 3.0 | 0.00 | 0.00 | 0.00 | 19 | 1018.3 |
| 20260509015634 | 68 | 333 | 2.0 | 3.0 | 0.00 | 0.00 | 0.00 | 19 | 1018.2 |
| 20260509015126 | 68 | 21 | 1.0 | 4.0 | 0.00 | 0.00 | 0.00 | 18 | 1018.1 |
| 20260509014641 | 68 | 341 | 1.0 | 7.0 | 0.00 | 0.00 | 0.00 | 18 | 1018.1 |
| 20260509014138 | 68 | 355 | 3.0 | 7.0 | 0.00 | 0.00 | 0.00 | 18 | 1018.0 |
| 20260509013633 | 69 | 96 | 1.0 | 2.0 | 0.00 | 0.00 | 0.00 | 17 | 1018.0 |
| 20260509013127 | 70 | 265 | 0.0 | 2.0 | 0.00 | 0.00 | 0.00 | 17 | 1017.9 |
| 20260509012641 | 70 | 265 | 0.0 | 3.0 | 0.00 | 0.00 | 0.00 | 16 | 1017.7 |
| 20260509012154 | 70 | 265 | 0.0 | 4.0 | 0.00 | 0.00 | 0.00 | 16 | 1017.7 |
| 20260509011626 | 71 | 101 | 1.0 | 4.0 | 0.00 | 0.00 | 0.00 | 16 | 1017.6 |
| 20260509011140 | 71 | 94 | 1.0 | 4.0 | 0.00 | 0.00 | 0.00 | 16 | 1017.6 |
| 20260509010634 | 71 | 33 | 1.0 | 4.0 | 0.00 | 0.00 | 0.00 | 16 | 1017.7 |
| 20260509010133 | 71 | 19 | 2.0 | 4.0 | 0.00 | 0.00 | 0.00 | 15 | 1017.6 |
| 20260509005627 | 72 | 351 | 2.0 | 3.0 | 0.00 | 0.00 | 0.00 | 15 | 1017.6 |
| 20260509005141 | 72 | 246 | 1.0 | 5.0 | 0.00 | 0.00 | 0.00 | 15 | 1017.6 |
| 20260509004634 | 72 | 320 | 3.0 | 5.0 | 0.00 | 0.00 | 0.00 | 15 | 1017.6 |
| 20260509004146 | 72 | 78 | 2.0 | 10.0 | 0.00 | 0.00 | 0.00 | 15 | 1017.5 |
| 20260509003640 | 72 | 60 | 3.0 | 10.0 | 0.00 | 0.00 | 0.00 | 14 | 1017.5 |
| 20260509003134 | 73 | 329 | 2.0 | 6.0 | 0.00 | 0.00 | 0.00 | 15 | 1017.6 |
| 20260509002648 | 73 | 323 | 1.0 | 8.0 | 0.00 | 0.00 | 0.00 | 15 | 1017.5 |
| 20260509002141 | 73 | 41 | 3.0 | 8.0 | 0.00 | 0.00 | 0.00 | 15 | 1017.6 |
| 20260509001655 | 74 | 42 | 2.0 | 5.0 | 0.00 | 0.00 | 0.00 | 15 | 1017.6 |
| 20260509001131 | 74 | 311 | 2.0 | 6.0 | 0.00 | 0.00 | 0.00 | 15 | 1017.6 |
| 20260509000625 | 75 | 17 | 2.0 | 6.0 | 0.00 | 0.00 | 0.00 | 15 | 1017.5 |
| 20260509000200 | 75 | 324 | 2.0 | 8.0 | 0.00 | 0.00 | 0.00 | 15 | 1017.4 |
| 20260508235653 | 74 | 236 | 2.0 | 8.0 | 0.00 | 0.00 | 0.00 | 14 | 1017.4 |
| 20260508235126 | 74 | 240 | 2.0 | 8.0 | 0.00 | 0.00 | 0.00 | 14 | 1017.4 |
| 20260508234700 | 74 | 328 | 3.0 | 8.0 | 0.00 | 0.00 | 0.00 | 15 | 1017.5 |
| 20260508234133 | 74 | 229 | 3.0 | 5.0 | 0.00 | 0.00 | 0.00 | 14 | 1017.3 |
| 20260508233627 | 74 | 202 | 3.0 | 7.0 | 0.00 | 0.00 | 0.00 | 15 | 1017.5 |
| 20260508233141 | 74 | 258 | 2.0 | 7.0 | 0.00 | 0.00 | 0.00 | 16 | 1017.3 |
| 20260508232635 | 74 | 203 | 3.0 | 7.0 | 0.00 | 0.00 | 0.00 | 16 | 1017.4 |
| 20260508232132 | 74 | 115 | 3.0 | 7.0 | 0.00 | 0.00 | 0.00 | 16 | 1017.3 |
| 20260508231627 | 74 | 154 | 3.0 | 7.0 | 0.00 | 0.00 | 0.00 | 16 | 1017.3 |
| 20260508231141 | 74 | 252 | 1.0 | 3.0 | 0.00 | 0.00 | 0.00 | 16 | 1017.2 |
| 20260508230655 | 74 | 122 | 1.0 | 3.0 | 0.00 | 0.00 | 0.00 | 16 | 1017.2 |
| 20260508230128 | 74 | 158 | 0.0 | 4.0 | 0.00 | 0.00 | 0.00 | 16 | 1017.2 |
| 20260508225640 | 74 | 142 | 2.0 | 4.0 | 0.00 | 0.00 | 0.00 | 16 | 1017.2 |
| 20260508225134 | 74 | 146 | 2.0 | 4.0 | 0.00 | 0.00 | 0.00 | 17 | 1017.2 |
| 20260508224627 | 74 | 340 | 1.0 | 5.0 | 0.00 | 0.00 | 0.00 | 17 | 1017.3 |
| 20260508224125 | 74 | 150 | 2.0 | 5.0 | 0.00 | 0.00 | 0.00 | 17 | 1017.4 |
| 20260508223640 | 73 | 127 | 1.0 | 5.0 | 0.00 | 0.00 | 0.00 | 17 | 1017.4 |
| 20260508223153 | 72 | 341 | 2.0 | 5.0 | 0.00 | 0.00 | 0.00 | 17 | 1017.4 |
| 20260508222625 | 72 | 149 | 2.0 | 3.0 | 0.00 | 0.00 | 0.00 | 17 | 1017.6 |
| 20260508222139 | 72 | 86 | 0.0 | 4.0 | 0.00 | 0.00 | 0.00 | 17 | 1017.6 |
| 20260508221653 | 72 | 86 | 2.0 | 4.0 | 0.00 | 0.00 | 0.00 | 17 | 1017.6 |
| 20260508221125 | 73 | 128 | 1.0 | 7.0 | 0.00 | 0.00 | 0.00 | 17 | 1017.7 |
| 20260508220639 | 73 | 97 | 3.0 | 7.0 | 0.00 | 0.00 | 0.00 | 16 | 1017.6 |
| 20260508220151 | 74 | 161 | 2.0 | 7.0 | 0.00 | 0.00 | 0.00 | 16 | 1017.7 |
| 20260508215645 | 74 | 120 | 2.0 | 12.0 | 0.00 | 0.00 | 0.00 | 16 | 1017.8 |
| 20260508215157 | 75 | 157 | 1.0 | 9.0 | 0.00 | 0.00 | 0.00 | 17 | 1017.8 |
| 20260508214649 | 74 | 150 | 3.0 | 6.0 | 0.00 | 0.00 | 0.00 | 17 | 1017.8 |
| 20260508214125 | 74 | 152 | 1.0 | 5.0 | 0.00 | 0.00 | 0.00 | 16 | 1017.8 |
| 20260508213636 | 75 | 87 | 1.0 | 7.0 | 0.00 | 0.00 | 0.00 | 17 | 1017.8 |
| 20260508213131 | 75 | 86 | 2.0 | 9.0 | 0.00 | 0.00 | 0.00 | 17 | 1017.8 |
| 20260508212644 | 74 | 74 | 2.0 | 9.0 | 0.00 | 0.00 | 0.00 | 16 | 1017.8 |
| 20260508212137 | 74 | 340 | 1.0 | 7.0 | 0.00 | 0.00 | 0.00 | 17 | 1018.0 |
| 20260508211630 | 75 | 327 | 2.0 | 4.0 | 0.00 | 0.00 | 0.00 | 16 | 1017.9 |
| 20260508211124 | 75 | 5 | 2.0 | 6.0 | 0.00 | 0.00 | 0.00 | 16 | 1018.0 |
| 20260508210657 | 75 | 247 | 2.0 | 6.0 | 0.00 | 0.00 | 0.00 | 16 | 1018.1 |
| 20260508210130 | 76 | 318 | 2.0 | 7.0 | 0.00 | 0.00 | 0.00 | 16 | 1018.2 |
| 20260508205627 | 76 | 355 | 2.0 | 7.0 | 0.00 | 0.00 | 0.00 | 17 | 1018.2 |
| 20260508205141 | 75 | 59 | 2.0 | 9.0 | 0.00 | 0.00 | 0.00 | 17 | 1018.2 |
| 20260508204634 | 75 | 63 | 4.0 | 9.0 | 0.00 | 0.00 | 0.00 | 16 | 1018.2 |
| 20260508204148 | 75 | 152 | 3.0 | 7.0 | 0.00 | 0.00 | 0.00 | 16 | 1018.3 |
| 20260508203641 | 76 | 261 | 2.0 | 7.0 | 0.00 | 0.00 | 0.00 | 16 | 1018.5 |
| 20260508203134 | 75 | 101 | 2.0 | 5.0 | 0.00 | 0.00 | 0.00 | 16 | 1018.5 |
| 20260508202627 | 74 | 154 | 3.0 | 10.0 | 0.00 | 0.00 | 0.00 | 17 | 1018.5 |
| 20260508202140 | 74 | 294 | 5.0 | 10.0 | 0.00 | 0.00 | 0.00 | 17 | 1018.7 |
| 20260508201634 | 74 | 107 | 2.0 | 10.0 | 0.00 | 0.00 | 0.00 | 17 | 1018.7 |
| 20260508201132 | 74 | 149 | 4.0 | 10.0 | 0.00 | 0.00 | 0.00 | 16 | 1018.8 |
| 20260508200625 | 74 | 130 | 4.0 | 10.0 | 0.00 | 0.00 | 0.00 | 16 | 1018.8 |
| 20260508200159 | 73 | 157 | 2.0 | 8.0 | 0.00 | 0.00 | 0.00 | 17 | 1018.8 |
| 20260508195631 | 74 | 31 | 2.0 | 10.0 | 0.00 | 0.00 | 0.00 | 17 | 1019.0 |
| 20260508195125 | 73 | 155 | 3.0 | 10.0 | 0.00 | 0.00 | 0.00 | 17 | 1019.0 |
| 20260508194638 | 73 | 131 | 5.0 | 9.0 | 0.00 | 0.00 | 0.00 | 17 | 1019.0 |
| 20260508194133 | 72 | 159 | 2.0 | 11.0 | 0.00 | 0.00 | 0.00 | 18 | 1019.1 |
| 20260508193626 | 72 | 171 | 2.0 | 7.0 | 0.00 | 0.00 | 0.00 | 17 | 1019.2 |
| 20260508193143 | 72 | 254 | 3.0 | 8.0 | 0.00 | 0.00 | 0.00 | 17 | 1019.2 |
| 20260508192657 | 73 | 161 | 2.0 | 8.0 | 0.00 | 0.00 | 0.00 | 17 | 1019.1 |
| 20260508192128 | 73 | 135 | 3.0 | 9.0 | 0.00 | 0.00 | 0.00 | 17 | 1019.2 |
| 20260508191643 | 73 | 142 | 3.0 | 9.0 | 0.00 | 0.00 | 0.00 | 17 | 1019.2 |
| 20260508191136 | 73 | 188 | 2.0 | 6.0 | 0.00 | 0.00 | 0.00 | 18 | 1019.4 |
| 20260508190629 | 73 | 46 | 1.0 | 8.0 | 0.00 | 0.00 | 0.00 | 18 | 1019.3 |
| 20260508190142 | 73 | 112 | 2.0 | 7.0 | 0.00 | 0.00 | 0.00 | 18 | 1019.4 |
| 20260508185636 | 72 | 83 | 2.0 | 7.0 | 0.00 | 0.00 | 0.00 | 18 | 1019.5 |
| 20260508185133 | 72 | 53 | 3.0 | 8.0 | 0.00 | 0.00 | 0.00 | 19 | 1019.4 |
| 20260508184627 | 71 | 203 | 3.0 | 9.0 | 0.00 | 0.00 | 0.00 | 18 | 1019.7 |
| 20260508184140 | 71 | 119 | 3.0 | 9.0 | 0.00 | 0.00 | 0.00 | 19 | 1019.7 |
| 20260508183634 | 70 | 167 | 2.0 | 5.0 | 0.00 | 0.00 | 0.00 | 17 | 1019.7 |
| 20260508183126 | 70 | 262 | 3.0 | 9.0 | 0.00 | 0.00 | 0.00 | 18 | 1019.8 |
| 20260508182640 | 70 | 192 | 4.0 | 10.0 | 0.00 | 0.00 | 0.00 | 18 | 1019.9 |
| 20260508182154 | 70 | 90 | 4.0 | 10.0 | 0.00 | 0.00 | 0.00 | 18 | 1019.8 |
| 20260508181625 | 70 | 68 | 4.0 | 7.0 | 0.00 | 0.00 | 0.00 | 19 | 1019.9 |
| 20260508181123 | 70 | 171 | 4.0 | 7.0 | 0.00 | 0.00 | 0.00 | 19 | 1020.0 |
| 20260508180656 | 70 | 138 | 2.0 | 6.0 | 0.00 | 0.00 | 0.00 | 18 | 1020.1 |
| 20260508180128 | 70 | 178 | 3.0 | 11.0 | 0.00 | 0.00 | 0.00 | 19 | 1020.2 |
| 20260508175641 | 70 | 140 | 4.0 | 11.0 | 0.00 | 0.00 | 0.00 | 19 | 1020.2 |
| 20260508175135 | 70 | 150 | 3.0 | 9.0 | 0.00 | 0.00 | 0.00 | 19 | 1020.3 |
| 20260508174628 | 69 | 134 | 2.0 | 9.0 | 0.00 | 0.00 | 0.00 | 20 | 1020.3 |
| 20260508174143 | 69 | 140 | 3.0 | 11.0 | 0.00 | 0.00 | 0.00 | 18 | 1020.3 |
| 20260508173637 | 69 | 148 | 5.0 | 8.0 | 0.00 | 0.00 | 0.00 | 19 | 1020.4 |
| 20260508173131 | 69 | 20 | 2.0 | 4.0 | 0.00 | 0.00 | 0.00 | 20 | 1020.6 |
| 20260508172629 | 68 | 146 | 3.0 | 11.0 | 0.00 | 0.00 | 0.00 | 20 | 1020.6 |
| 20260508172203 | 69 | 138 | 6.0 | 11.0 | 0.00 | 0.00 | 0.00 | 19 | 1020.6 |
| 20260508171636 | 68 | 163 | 5.0 | 10.0 | 0.00 | 0.00 | 0.00 | 21 | 1020.7 |
| 20260508171130 | 66 | 175 | 2.0 | 7.0 | 0.00 | 0.00 | 0.00 | 21 | 1020.8 |
| 20260508170624 | 66 | 113 | 2.0 | 11.0 | 0.00 | 0.00 | 0.00 | 21 | 1020.8 |
| 20260508170139 | 66 | 141 | 4.0 | 11.0 | 0.00 | 0.00 | 0.00 | 21 | 1020.9 |
| 20260508165633 | 65 | 32 | 3.0 | 6.0 | 0.00 | 0.00 | 0.00 | 22 | 1020.8 |
| 20260508165127 | 64 | 51 | 4.0 | 5.0 | 0.00 | 0.00 | 0.00 | 22 | 1020.8 |
| 20260508164625 | 65 | 69 | 1.0 | 8.0 | 0.00 | 0.00 | 0.00 | 23 | 1021.0 |
| 20260508164139 | 65 | 248 | 2.0 | 8.0 | 0.00 | 0.00 | 0.00 | 21 | 1021.0 |
| 20260508163653 | 65 | 36 | 2.0 | 7.0 | 0.00 | 0.00 | 0.00 | 21 | 1021.1 |
| 20260508163145 | 65 | 150 | 2.0 | 7.0 | 0.00 | 0.00 | 0.00 | 22 | 1021.0 |
| 20260508162637 | 65 | 108 | 2.0 | 7.0 | 0.00 | 0.00 | 0.00 | 22 | 1021.1 |
| 20260508162150 | 64 | 157 | 3.0 | 6.0 | 0.00 | 0.00 | 0.00 | 24 | 1021.1 |
| 20260508161641 | 64 | 147 | 3.0 | 7.0 | 0.00 | 0.00 | 0.00 | 23 | 1021.1 |
| 20260508161135 | 63 | 43 | 2.0 | 4.0 | 0.00 | 0.00 | 0.00 | 23 | 1021.1 |
| 20260508160629 | 63 | 55 | 3.0 | 5.0 | 0.00 | 0.00 | 0.00 | 23 | 1021.2 |
| 20260508160203 | 64 | 144 | 2.0 | 7.0 | 0.00 | 0.00 | 0.00 | 23 | 1021.2 |
| 20260508155636 | 63 | 143 | 2.0 | 6.0 | 0.00 | 0.00 | 0.00 | 25 | 1021.2 |
| 20260508155154 | 62 | 65 | 2.0 | 5.0 | 0.00 | 0.00 | 0.00 | 25 | 1021.2 |
| 20260508154626 | 61 | 178 | 2.0 | 6.0 | 0.00 | 0.00 | 0.00 | 26 | 1021.3 |
| 20260508154140 | 60 | 46 | 4.0 | 6.0 | 0.00 | 0.00 | 0.00 | 25 | 1021.3 |
| 20260508153632 | 60 | 53 | 4.0 | 6.0 | 0.00 | 0.00 | 0.00 | 25 | 1021.3 |
| 20260508153125 | 60 | 154 | 3.0 | 8.0 | 0.00 | 0.00 | 0.00 | 25 | 1021.3 |
| 20260508152659 | 60 | 49 | 4.0 | 6.0 | 0.00 | 0.00 | 0.00 | 24 | 1021.4 |
| 20260508152132 | 60 | 91 | 2.0 | 5.0 | 0.00 | 0.00 | 0.00 | 24 | 1021.3 |
| 20260508151645 | 60 | 162 | 2.0 | 5.0 | 0.00 | 0.00 | 0.00 | 25 | 1021.3 |
| 20260508151138 | 59 | 171 | 2.0 | 4.0 | 0.00 | 0.00 | 0.00 | 25 | 1021.4 |
| 20260508150635 | 59 | 49 | 1.0 | 4.0 | 0.00 | 0.00 | 0.00 | 25 | 1021.4 |
| 20260508150129 | 59 | 35 | 2.0 | 4.0 | 0.00 | 0.00 | 0.00 | 25 | 1021.5 |
| 20260508145642 | 59 | 59 | 1.0 | 5.0 | 0.00 | 0.00 | 0.00 | 27 | 1021.4 |
| 20260508145156 | 59 | 169 | 3.0 | 5.0 | 0.00 | 0.00 | 0.00 | 25 | 1021.5 |
| 20260508144628 | 58 | 142 | 2.0 | 3.0 | 0.00 | 0.00 | 0.00 | 26 | 1021.4 |
| 20260508144201 | 57 | 113 | 1.0 | 5.0 | 0.00 | 0.00 | 0.00 | 27 | 1021.5 |
| 20260508143653 | 57 | 156 | 2.0 | 5.0 | 0.00 | 0.00 | 0.00 | 27 | 1021.4 |
| 20260508143126 | 55 | 136 | 1.0 | 4.0 | 0.00 | 0.00 | 0.00 | 28 | 1021.5 |
| 20260508142639 | 54 | 59 | 1.0 | 3.0 | 0.00 | 0.00 | 0.00 | 29 | 1021.5 |
| 20260508142133 | 53 | 79 | 1.0 | 3.0 | 0.00 | 0.00 | 0.00 | 31 | 1021.4 |
| 20260508141630 | 52 | 38 | 2.0 | 3.0 | 0.00 | 0.00 | 0.00 | 31 | 1021.4 |
| 20260508141144 | 50 | 144 | 0.0 | 2.0 | 0.00 | 0.00 | 0.00 | 34 | 1021.3 |
| 20260508140636 | 49 | 144 | 0.0 | 2.0 | 0.00 | 0.00 | 0.00 | 41 | 1021.3 |
| 20260508140150 | 48 | 144 | 0.0 | 1.0 | 0.00 | 0.00 | 0.00 | 42 | 1021.3 |
| 20260508135642 | 47 | 144 | 0.0 | 0.0 | 0.00 | 0.00 | 0.00 | 45 | 1021.3 |
| 20260508135155 | 46 | 144 | 0.0 | 0.0 | 0.00 | 0.00 | 0.00 | 45 | 1021.3 |
| 20260508134626 | 46 | 144 | 0.0 | 0.0 | 0.00 | 0.00 | 0.00 | 43 | 1021.3 |
| 20260508134141 | 45 | 144 | 0.0 | 0.0 | 0.00 | 0.00 | 0.00 | 45 | 1021.3 |
| 20260508133634 | 45 | 144 | 0.0 | 0.0 | 0.00 | 0.00 | 0.00 | 41 | 1021.2 |
| 20260508133132 | 44 | 144 | 0.0 | 0.0 | 0.00 | 0.00 | 0.00 | 43 | 1021.2 |
| 20260508132625 | 44 | 144 | 0.0 | 0.0 | 0.00 | 0.00 | 0.00 | 43 | 1021.1 |
| 20260508132138 | 42 | 144 | 0.0 | 0.0 | 0.00 | 0.00 | 0.00 | 42 | 1021.1 |
| 20260508131632 | 42 | 144 | 0.0 | 0.0 | 0.00 | 0.00 | 0.00 | 46 | 1020.9 |
| 20260508131125 | 41 | 144 | 0.0 | 0.0 | 0.00 | 0.00 | 0.00 | 45 | 1020.8 |
| 20260508130640 | 40 | 144 | 0.0 | 0.0 | 0.00 | 0.00 | 0.00 | 47 | 1020.8 |
| 20260508130133 | 40 | 144 | 0.0 | 0.0 | 0.00 | 0.00 | 0.00 | 46 | 1020.7 |
| 20260508125647 | 40 | 144 | 0.0 | 0.0 | 0.00 | 0.00 | 0.00 | 46 | 1020.6 |
| 20260508125124 | 40 | 144 | 0.0 | 0.0 | 0.00 | 0.00 | 0.00 | 46 | 1020.6 |
| 20260508124637 | 40 | 126 | 0.0 | 0.0 | 0.00 | 0.00 | 0.00 | 45 | 1020.5 |
| 20260508124129 | 40 | 218 | 0.0 | 0.0 | 0.00 | 0.00 | 0.00 | 44 | 1020.4 |
| 20260508123623 | 40 | 218 | 0.0 | 0.0 | 0.00 | 0.00 | 0.00 | 44 | 1020.3 |
| 20260508123137 | 40 | 218 | 0.0 | 3.0 | 0.00 | 0.00 | 0.00 | 44 | 1020.3 |
| 20260508122630 | 40 | 218 | 0.0 | 3.0 | 0.00 | 0.00 | 0.00 | 44 | 1020.2 |
| 20260508122123 | 40 | 218 | 1.0 | 3.0 | 0.00 | 0.00 | 0.00 | 42 | 1020.1 |
| 20260508121638 | 40 | 91 | 0.0 | 2.0 | 0.00 | 0.00 | 0.00 | 43 | 1020.1 |
| 20260508121150 | 40 | 91 | 0.0 | 2.0 | 0.00 | 0.00 | 0.00 | 41 | 1020.1 |
| 20260508120627 | 41 | 91 | 0.0 | 0.0 | 0.00 | 0.00 | 0.00 | 40 | 1020.0 |
| 20260508120141 | 41 | 91 | 0.0 | 0.0 | 0.00 | 0.00 | 0.00 | 40 | 1020.1 |
| 20260508115654 | 41 | 91 | 0.0 | 0.0 | 0.00 | 0.00 | 0.00 | 39 | 1020.0 |
| 20260508115147 | 41 | 91 | 0.0 | 0.0 | 0.00 | 0.00 | 0.00 | 39 | 1020.1 |
| 20260508114639 | 42 | 91 | 0.0 | 0.0 | 0.00 | 0.00 | 0.00 | 40 | 1020.1 |
| 20260508114132 | 42 | 91 | 0.0 | 0.0 | 0.00 | 0.00 | 0.00 | 40 | 1020.1 |
| 20260508113626 | 43 | 91 | 0.0 | 0.0 | 0.00 | 0.00 | 0.00 | 40 | 1020.1 |
| 20260508113140 | 43 | 91 | 0.0 | 2.0 | 0.00 | 0.00 | 0.00 | 37 | 1019.9 |
| 20260508112633 | 43 | 91 | 1.0 | 2.0 | 0.00 | 0.00 | 0.00 | 38 | 1020.0 |
| 20260508112130 | 44 | 91 | 0.0 | 3.0 | 0.00 | 0.00 | 0.00 | 39 | 1019.9 |
| 20260508111624 | 44 | 91 | 1.0 | 3.0 | 0.00 | 0.00 | 0.00 | 35 | 1019.9 |
| 20260508111137 | 44 | 223 | 2.0 | 3.0 | 0.00 | 0.00 | 0.00 | 38 | 1019.9 |
| 20260508110631 | 44 | 223 | 1.0 | 3.0 | 0.00 | 0.00 | 0.00 | 37 | 1019.7 |
| 20260508110204 | 44 | 201 | 0.0 | 0.0 | 0.00 | 0.00 | 0.00 | 40 | 1019.8 |
| 20260508105636 | 44 | 87 | 0.0 | 0.0 | 0.00 | 0.00 | 0.00 | 40 | 1019.9 |
| 20260508105128 | 44 | 87 | 0.0 | 0.0 | 0.00 | 0.00 | 0.00 | 36 | 1019.8 |
| 20260508104643 | 44 | 32 | 0.0 | 0.0 | 0.00 | 0.00 | 0.00 | 38 | 1019.8 |
| 20260508104136 | 43 | 286 | 0.0 | 0.0 | 0.00 | 0.00 | 0.00 | 38 | 1019.6 |
| 20260508103654 | 43 | 194 | 0.0 | 0.0 | 0.00 | 0.00 | 0.00 | 39 | 1019.5 |
| 20260508103126 | 43 | 194 | 0.0 | 3.0 | 0.00 | 0.00 | 0.00 | 38 | 1019.4 |
| 20260508102639 | 43 | 194 | 1.0 | 3.0 | 0.00 | 0.00 | 0.00 | 36 | 1019.3 |
| 20260508102133 | 43 | 272 | 0.0 | 3.0 | 0.00 | 0.00 | 0.00 | 38 | 1019.3 |
| 20260508101626 | 43 | 294 | 1.0 | 3.0 | 0.00 | 0.00 | 0.00 | 35 | 1019.3 |
| 20260508101140 | 43 | 360 | 1.0 | 4.0 | 0.00 | 0.00 | 0.00 | 35 | 1019.2 |
| 20260508100633 | 42 | 232 | 2.0 | 4.0 | 0.00 | 0.00 | 0.00 | 34 | 1019.2 |
| 20260508100127 | 42 | 77 | 0.0 | 0.0 | 0.00 | 0.00 | 0.00 | 35 | 1019.3 |
| 20260508095645 | 42 | 23 | 0.0 | 0.0 | 0.00 | 0.00 | 0.00 | 34 | 1019.4 |
| 20260508095138 | 42 | 23 | 0.0 | 3.0 | 0.00 | 0.00 | 0.00 | 34 | 1019.4 |
| 20260508094631 | 43 | 23 | 0.0 | 3.0 | 0.00 | 0.00 | 0.00 | 35 | 1019.3 |
| 20260508094124 | 43 | 288 | 1.0 | 3.0 | 0.00 | 0.00 | 0.00 | 34 | 1019.3 |
| 20260508093638 | 43 | 296 | 1.0 | 3.0 | 0.00 | 0.00 | 0.00 | 33 | 1019.3 |
| 20260508093132 | 43 | 201 | 0.0 | 0.0 | 0.00 | 0.00 | 0.00 | 34 | 1019.4 |
| 20260508092645 | 44 | 196 | 0.0 | 0.0 | 0.00 | 0.00 | 0.00 | 32 | 1019.5 |
| 20260508092138 | 44 | 196 | 0.0 | 0.0 | 0.00 | 0.00 | 0.00 | 33 | 1019.5 |
| 20260508091632 | 44 | 196 | 0.0 | 0.0 | 0.00 | 0.00 | 0.00 | 33 | 1019.6 |
| 20260508091149 | 45 | 196 | 0.0 | 0.0 | 0.00 | 0.00 | 0.00 | 33 | 1019.6 |
| 20260508090643 | 45 | 196 | 0.0 | 0.0 | 0.00 | 0.00 | 0.00 | 31 | 1019.6 |
| 20260508090135 | 46 | 196 | 0.0 | 0.0 | 0.00 | 0.00 | 0.00 | 30 | 1019.7 |
| 20260508085648 | 46 | 196 | 0.0 | 0.0 | 0.00 | 0.00 | 0.00 | 29 | 1019.7 |
| 20260508085141 | 47 | 196 | 0.0 | 0.0 | 0.00 | 0.00 | 0.00 | 30 | 1019.7 |
| 20260508084656 | 47 | 196 | 0.0 | 0.0 | 0.00 | 0.00 | 0.00 | 30 | 1019.7 |
| 20260508084128 | 48 | 196 | 0.0 | 0.0 | 0.00 | 0.00 | 0.00 | 28 | 1019.7 |
| 20260508083642 | 48 | 196 | 0.0 | 0.0 | 0.00 | 0.00 | 0.00 | 30 | 1019.7 |
| 20260508083136 | 49 | 196 | 0.0 | 1.0 | 0.00 | 0.00 | 0.00 | 27 | 1019.7 |
| 20260508082649 | 50 | 196 | 0.0 | 1.0 | 0.00 | 0.00 | 0.00 | 26 | 1019.7 |
| 20260508082126 | 51 | 196 | 0.0 | 0.0 | 0.00 | 0.00 | 0.00 | 26 | 1019.6 |
| 20260508081640 | 51 | 196 | 0.0 | 1.0 | 0.00 | 0.00 | 0.00 | 25 | 1019.6 |
| 20260508081134 | 52 | 196 | 1.0 | 2.0 | 0.00 | 0.00 | 0.00 | 26 | 1019.7 |
| 20260508080627 | 53 | 196 | 0.0 | 2.0 | 0.00 | 0.00 | 0.00 | 23 | 1019.7 |
| 20260508080202 | 53 | 196 | 0.0 | 2.0 | 0.00 | 0.00 | 0.00 | 21 | 1019.7 |
| 20260508075630 | 54 | 196 | 0.0 | 1.0 | 0.00 | 0.00 | 0.00 | 21 | 1019.7 |
| 20260508075123 | 54 | 196 | 0.0 | 3.0 | 0.00 | 0.00 | 0.00 | 20 | 1019.7 |
| 20260508074637 | 55 | 196 | 1.0 | 3.0 | 0.00 | 0.00 | 0.00 | 19 | 1019.7 |
| 20260508074135 | 55 | 250 | 2.0 | 5.0 | 0.00 | 0.00 | 0.00 | 19 | 1019.7 |
| 20260508073628 | 56 | 284 | 3.0 | 7.0 | 0.00 | 0.00 | 0.00 | 19 | 1019.7 |
| 20260508073141 | 57 | 238 | 3.0 | 7.0 | 0.00 | 0.00 | 0.00 | 21 | 1019.8 |
| 20260508072635 | 57 | 161 | 3.0 | 5.0 | 0.00 | 0.00 | 0.00 | 23 | 1019.7 |
| 20260508072128 | 58 | 98 | 1.0 | 6.0 | 0.00 | 0.00 | 0.00 | 24 | 1019.7 |
| 20260508071640 | 58 | 55 | 3.0 | 6.0 | 0.00 | 0.00 | 0.00 | 23 | 1019.7 |
| 20260508071134 | 58 | 40 | 1.0 | 9.0 | 0.00 | 0.00 | 0.00 | 23 | 1019.6 |
| 20260508070628 | 58 | 27 | 3.0 | 9.0 | 0.00 | 0.00 | 0.00 | 23 | 1019.7 |
| 20260508070124 | 57 | 33 | 4.0 | 9.0 | 0.00 | 0.00 | 0.00 | 23 | 1019.7 |
| 20260508065638 | 57 | 36 | 3.0 | 8.0 | 0.00 | 0.00 | 0.00 | 23 | 1019.6 |
| 20260508065133 | 57 | 5 | 3.0 | 4.0 | 0.00 | 0.00 | 0.00 | 22 | 1019.6 |
| 20260508064625 | 57 | 34 | 1.0 | 4.0 | 0.00 | 0.00 | 0.00 | 21 | 1019.6 |
| 20260508064139 | 57 | 37 | 2.0 | 4.0 | 0.00 | 0.00 | 0.00 | 21 | 1019.5 |
| 20260508063632 | 57 | 304 | 1.0 | 4.0 | 0.00 | 0.00 | 0.00 | 20 | 1019.5 |
| 20260508063125 | 57 | 11 | 2.0 | 5.0 | 0.00 | 0.00 | 0.00 | 19 | 1019.6 |